DW3219 Weather Reports


Display with metric or nautical units.
time (UTC)temp
F
wind
direction
speed
MPH
gust
MPH
rain 1hr
in
rain 24hr
in
rain mn
in
humidity
%
barometer
mb
20260904151529 65 254 0.0 0.0 0.00 0.00 0.00 39 1004.0
20260904150034 63 254 0.0 0.0 0.00 0.00 0.00 44 1004.0
20260904144526 59 254 0.0 0.0 0.00 0.00 0.00 56 1004.2
20260904143025 57 255 0.0 0.0 0.00 0.00 0.00 61 1004.3
20260904141524 55 260 0.0 0.0 0.00 0.00 0.00 61 1004.2
20260904140023 52 266 0.0 2.0 0.00 0.00 0.00 64 1004.1
20260904134521 50 255 0.0 0.0 0.00 0.00 0.00 69 1004.0
20260904133020 49 255 0.0 0.0 0.00 0.00 0.00 72 1003.9
20260904131501 48 257 0.0 0.0 0.00 0.00 0.00 73 1003.6
20260904124544 49 243 0.0 0.0 0.00 0.00 0.00 71 1003.2
20260904123042 50 270 0.0 0.0 0.00 0.00 0.00 70 1003.0
20260904121540 50 271 0.0 0.0 0.00 0.00 0.00 69 1002.9
20260904120038 51 277 0.0 0.0 0.00 0.00 0.00 68 1002.8
20260904114537 51 277 0.0 0.0 0.00 0.00 0.00 68 1002.7
20260904113036 51 277 0.0 0.0 0.00 0.00 0.00 66 1002.6
20260904111534 51 277 0.0 0.0 0.00 0.00 0.00 65 1002.6
20260904110035 51 234 0.0 0.0 0.00 0.00 0.00 64 1002.6
20260904104521 52 233 0.0 0.0 0.00 0.00 0.00 63 1002.5
20260904103015 52 233 0.0 0.0 0.00 0.00 0.00 63 1002.3
20260904101515 52 233 0.0 0.0 0.00 0.00 0.00 63 1002.0
20260904100013 53 233 0.0 0.0 0.00 0.00 0.00 61 1002.1
20260904094511 54 257 0.0 0.0 0.00 0.00 0.00 56 1001.8
20260904093008 55 237 0.0 0.0 0.00 0.00 0.00 53 1001.8
20260904091504 56 237 0.0 0.0 0.00 0.00 0.00 53 1001.8
20260904090001 56 245 0.0 0.0 0.00 0.00 0.00 52 1001.6
20260904084548 56 243 0.0 0.0 0.00 0.00 0.00 51 1001.8
20260904083047 57 243 0.0 0.0 0.00 0.00 0.00 50 1001.7
20260904081545 57 243 0.0 0.0 0.00 0.00 0.00 55 1001.8
20260904080043 58 246 0.0 0.0 0.00 0.00 0.00 54 1001.9
20260904074539 59 246 0.0 0.0 0.00 0.00 0.00 53 1002.0
20260904073051 59 246 0.0 0.0 0.00 0.00 0.00 53 1001.9
20260904071536 60 248 0.0 0.0 0.00 0.00 0.00 52 1002.0
20260904070033 61 245 0.0 0.0 0.00 0.00 0.00 50 1001.9
20260904064518 62 250 0.0 0.0 0.00 0.00 0.00 49 1001.8
20260904063111 62 258 0.0 5.0 0.00 0.00 0.00 46 1001.7
20260904061603 63 267 0.0 1.0 0.00 0.00 0.00 46 1001.6
20260904060056 63 261 0.0 3.0 0.00 0.00 0.00 45 1001.6
20260904054558 64 266 0.0 1.0 0.00 0.00 0.00 44 1001.5
20260904053122 65 257 1.0 10.0 0.00 0.00 0.00 41 1001.6
20260904051551 66 249 0.0 0.0 0.00 0.00 0.00 39 1001.7
20260904050045 68 259 0.0 4.0 0.00 0.00 0.00 38 1001.7
20260904044550 72 196 0.0 0.0 0.00 0.00 0.00 29 1001.6
20260904043046 74 182 0.0 2.0 0.00 0.00 0.00 25 1001.5
20260904041525 71 161 0.0 0.0 0.00 0.00 0.00 27 1001.7
20260904040025 71 221 0.0 2.0 0.00 0.00 0.00 30 1001.7
20260904034516 73 143 0.0 3.0 0.00 0.00 0.00 25 1001.6
20260904033017 68 188 0.0 0.0 0.00 0.00 0.00 36 1001.6
20260904031509 69 126 0.0 0.0 0.00 0.00 0.00 39 1001.5
20260904030005 70 107 0.0 0.0 0.00 0.00 0.00 39 1001.4
20260904024502 71 106 0.0 0.0 0.00 0.00 0.00 38 1001.2
20260904023057 73 87 0.0 0.0 0.00 0.00 0.00 35 1001.0
20260904021554 75 87 0.0 0.0 0.00 0.00 0.00 32 1000.9
20260904020100 76 87 0.0 0.0 0.00 0.00 0.00 29 1000.7
20260904014549 78 87 0.0 0.0 0.00 0.00 0.00 27 1000.8
20260904013033 80 87 0.0 0.0 0.00 0.00 0.00 23 1000.8
20260904011525 82 87 0.0 0.0 0.00 0.00 0.00 21 1000.8
20260904010023 83 87 0.0 0.0 0.00 0.00 0.00 20 1000.8
20260904004520 83 88 0.0 0.0 0.00 0.00 0.00 20 1000.8
20260904003024 84 85 0.0 0.0 0.00 0.00 0.00 19 1000.9
20260904001519 84 76 0.0 0.0 0.00 0.00 0.00 21 1001.1
20260904000018 86 80 0.0 1.0 0.00 0.00 0.00 16 1001.1
20260903234504 87 208 0.0 2.0 0.00 0.00 0.00 13 1001.1
20260903233001 86 163 0.0 1.0 0.00 0.00 0.00 14 1001.1
20260903231601 85 155 0.0 3.0 0.00 0.00 0.00 14 1001.2
20260903231503 86 156 0.0 2.0 0.00 0.00 0.00 14 1001.2
20260903230108 86 200 0.0 3.0 0.00 0.00 0.00 13 1001.2
20260903224559 86 153 0.0 4.0 0.00 0.00 0.00 14 1001.2
20260903223057 85 126 0.0 2.0 0.00 0.00 0.00 14 1001.3
20260903221557 85 72 0.0 7.0 0.00 0.00 0.00 14 1001.3
20260903220104 85 187 0.0 8.0 0.00 0.00 0.00 14 1001.4
20260903214553 85 161 1.0 6.0 0.00 0.00 0.00 15 1001.6
20260903213036 84 156 2.0 10.0 0.00 0.00 0.00 15 1001.5
20260903211533 83 137 1.0 6.0 0.00 0.00 0.00 15 1001.5
20260903210020 84 148 1.0 11.0 0.00 0.00 0.00 15 1001.7
20260903204524 83 169 0.0 3.0 0.00 0.00 0.00 15 1001.8
20260903203019 82 99 0.0 9.0 0.00 0.00 0.00 17 1002.0
20260903201528 82 92 0.0 5.0 0.00 0.00 0.00 17 1002.1
20260903200019 83 64 0.0 2.0 0.00 0.00 0.00 17 1002.3
20260903194520 82 117 0.0 9.0 0.00 0.00 0.00 16 1002.4
20260903193017 83 147 0.0 6.0 0.00 0.00 0.00 17 1002.6
20260903191516 82 153 0.0 2.0 0.00 0.00 0.00 16 1002.6
20260903190005 81 234 0.0 4.0 0.00 0.00 0.00 17 1002.9
20260903184504 81 150 0.0 4.0 0.00 0.00 0.00 18 1003.0
20260903183003 80 136 0.0 3.0 0.00 0.00 0.00 18 1003.0
20260903181502 79 157 0.0 4.0 0.00 0.00 0.00 21 1003.2
20260903180007 79 134 0.0 2.0 0.00 0.00 0.00 19 1003.3
20260903174502 78 256 0.0 8.0 0.00 0.00 0.00 19 1003.4
20260903173001 78 92 1.0 5.0 0.00 0.00 0.00 26 1003.6
20260903171503 78 248 0.0 1.0 0.00 0.00 0.00 20 1003.7
20260903170134 77 227 0.0 1.0 0.00 0.00 0.00 22 1003.5
20260903164552 76 246 0.0 2.0 0.00 0.00 0.00 25 1003.6
20260903163046 73 242 0.0 2.0 0.00 0.00 0.00 30 1003.7
20260903161558 72 286 0.0 4.0 0.00 0.00 0.00 32 1003.7
20260903160049 69 298 0.0 1.0 0.00 0.00 0.00 34 1003.6
20260903154553 67 285 0.0 1.0 0.00 0.00 0.00 38 1003.6
20260903153045 64 253 0.0 0.0 0.00 0.00 0.00 41 1003.7